Regional Weather Roundup
Issued by NWS Jackson, KY

Home | Current Version | Previous Version | Graphics & Text | Print | Product List | Glossary On
Versions: 1 2 3 4 5 6 7 8 9 10 11 12 13 14 15 16 17 18 19 20 21 22 23 24 25 26 27 28 29 30 31 32 33 34 35 36 37 38 39 40 41 42 43 44 45 46 47 48 49 50
000
ASUS43 KJKL 040210
RWRJKL

EAST KENTUCKY HOURLY WEATHER ROUNDUP
NATIONAL WEATHER SERVICE JACKSON KY
900 PM EST SAT DEC 03 2016

NOTE: "FAIR" INDICATES FEW OR NO CLOUDS BELOW 12,000 FEET WITH
NO SIGNIFICANT WEATHER AND/OR OBSTRUCTIONS TO VISIBILITY.

* THESE REPORTS ARE NOT UNDER NWS QUALITY CONTROL AND MAY NOT
  REPORT WEATHER SUCH AS PRECIPITATION AND FOG.

KYZ079-080-083-085-087-088-110-112-115-119-120-040300
...EASTERN KENTUCKY...

CITY           SKY/WX    TMP DP  RH WIND       PRES   REMARKS
JACKSON        CLOUDY    38  29  70 CALM      30.28S
LONDON         CLOUDY    39  28  64 NE3       30.28R
SOMERSET*      MOCLDY    37  32  81 NE3       30.30S
MONTICELLO*    CLOUDY    39  33  79 W7        30.30F WCI  34
WILLIAMSBURG*  CLOUDY    39  32  75 CALM      30.28R
MIDDLESBORO*   CLOUDY    40  33  76 CALM      30.28R
HARLAN APT*    CLOUDY    37  30  75 CALM      30.27R
PIKE CO APT*     N/A     36  29  77 NE3       30.28S
BIG SANDY APT* CLOUDY    37  30  77 CALM      30.30R
MOREHEAD APT*  CLOUDY    37  27  65 E3        30.31F
ASHLAND*       CLOUDY    37  30  75 CALM      30.31S
$$

KYZ035-036-041-042-044-050-067-078-099-040300
...CENTRAL KENTUCKY...

CITY           SKY/WX    TMP DP  RH WIND       PRES   REMARKS
MT STERLING*   MOCLDY    36  30  80 E3        30.31F
FLEMING/MASON* CLOUDY    35  28  78 E3        30.31F
DANVILLE*      CLOUDY    36  32  87 CALM      30.30F
LEXINGTON      MOCLDY    39  28  64 E5        30.29F
FRANKFORT      MOCLDY    38  29  70 E3        30.29S
LOUISVILLE     CLOUDY    42  27  55 E5        30.30F
LEBANON*         N/A     39  30  70 CALM      30.30S
GLASGOW*       CLOUDY    40  33  77 CALM      30.28F
BOWLING GREEN  CLOUDY    41  33  73 NE5       30.29F
$$

KYZ091>093-OHZ055-061-077-WVZ005-015-034-035-042-040300
...SOUTHERN OHIO/WEST VIRGINIA...

CITY           SKY/WX    TMP DP  RH WIND       PRES   REMARKS
COVINGTON      CLOUDY    36  29  75 N5        30.29F WCI  32
COLUMBUS       CLOUDY    37  28  70 NE3       30.31R
DAYTON         CLOUDY    37  27  67 CALM      30.30S
WILMINGTON     MOCLDY    33  27  78 CALM      30.30S
HUNTINGTON     MOCLDY    37  29  72 E3        30.30F
CHARLESTON     CLOUDY    35  29  78 CALM      30.31S
PINEVILLE*       N/A     33  28  83 MISG      30.32S
BECKLEY        CLOUDY    31  24  75 N3        30.24F
BLUEFIELD      CLOUDY    30  23  75 CALM      30.23F
LOGAN CO APT*    N/A     36  28  75 CALM      30.27F
$$

VAZ002-007-008-TNZ017-027-036-066-071-040300
...SOUTHWEST VIRGINIA/EAST TENNESSEE...

CITY           SKY/WX    TMP DP  RH WIND       PRES   REMARKS
WISE*          CLOUDY    34  28  80 CALM      30.24S
JONESVILLE*      N/A     39  34  81 CALM      30.29R
ABINGDON*      PTCLDY    38  30  71 CALM      30.24S
BRISTOL        CLOUDY    40  31  70 CALM      30.25F
MORRISTOWN*    CLOUDY    41  32  70 NE5       30.25R
SEVIERVILLE*   CLEAR     41  30  65 CALM      30.25S
KNOXVILLE      LGT RAIN  43  34  70 N5        30.25R
OAK RIDGE      LGT RAIN  44  33  65 CALM      30.28R
CROSSVILLE     LGT RAIN  38  33  82 CALM      30.24S
NASHVILLE      LGT RAIN  41  34  76 NE8       30.28F
$$

...KEY TO REMARKS...
VSB - VISIBILITY IN MILES
WCI - WIND CHILL INDEX
HX  - HEAT INDEX

$$



USA.gov is the U.S. government's official web portal to all federal, state and local government web resources and services.